sat.trackr.live / text

‹ back to catalog

STARLINK-34848

NORAD 65402 · 2025-191Z

PAYLOAD ACTIVE UNKNOWN

§ Identity

Operator
Country
US
Launch date
2025-08-30
Launch site
AFWTR
Launch vehicle
Mass (kg)
RCS (m²)

Purposes: comms

External: N2YO · Heavens-Above · Gunter

§ Orbital elements

Epoch: 2026-09-20T21:44:48.598656Z

Period
93.91 min
Inclination
97.2837°
Eccentricity
0.0001403
Mean motion
15.33451859 rev/d
Perigee alt
464.6 km
Apogee alt
466.5 km
Semi-major
6,843.7 km
B*
4.4786e-4
RAAN
129.9712°
Arg perigee
77.9670°
Mean anomaly
282.1730°
Rev number
5,970

§ Raw data

STARLINK-348481 65402U 25191Z   26263.90611804  .00014414  00000+0  44786-3 0  99982 65402  97.2837 129.9712 0001403  77.9670 282.1730 15.33451859 59708

JSON: /api/v1/satellites/65402 · /tle

For live sub-satellite position, see the globe view (requires WebGL).

§ Visibility from observer

Set your observer location to see the next 7 days of passes ≥ 10°. The values pass through the URL so the page stays shareable.

No JS? Fill the form by hand. The geolocation button needs JavaScript.